This demonstration page uses our WeatherBlox Daily Observations layout. Learn more.

38.88101, -77.10428

Hourly Observations for April 12, 2018

Temp ( °F °C ) Dew Point ( °F °C ) Humidity (%) Winds ( mph kmh ) Pressure ( in mb ) Visibility ( mi km ) Precip ( " mm )
12:52 am 00:52 Partly Cloudy 46 7.8 35 1.7 66 66 SSW 6 9 30.11 1020 10 16.0934 0 0
1:52 am 01:52 Partly Cloudy 46 7.8 35 1.7 66 66 SSW 7 11 30.1 1019 10 16.0934 0 0
2:52 am 02:52 Mostly Cloudy 46 7.8 35 1.7 66 66 SSW 8 13 30.08 1019 10 16.0934 0 0
3:52 am 03:52 Mostly Cloudy 46 7.8 34 1.1 63 63 SW 6 9 30.08 1019 10 16.0934 0 0
4:52 am 04:52 Mostly Cloudy 47 8.3 35 1.7 63 63 S 7 11 30.09 1019 10 16.0934 0 0
5:52 am 05:52 Cloudy 47 8.3 35 1.7 63 63 S 7 11 30.09 1019 10 16.0934 0 0
6:52 am 06:52 Cloudy 48 8.9 36 2.2 63 63 SSW 6 9 30.11 1020 10 16.0934 0 0
7:52 am 07:52 Cloudy 50 10 38 3.3 63 63 S 7 11 30.12 1020 10 16.0934 0 0
8:52 am 08:52 Mostly Cloudy 53 11.7 39 3.9 59 59 S 12 19 30.12 1020 10 16.0934 0 0
9:52 am 09:52 Mostly Cloudy 56 13.3 37 2.8 49 49 S 10 17 30.14 1021 10 16.0934 0 0
10:52 am 10:52 Cloudy 56 13.3 40 4.4 55 55 S 7 11 30.15 1021 10 16.0934 0 0
11:52 am 11:52 Cloudy 57 13.9 40 4.4 53 53 SSE 9 15 30.1 1019 10 16.0934 0 0
12:52 pm 12:52 Mostly Sunny 65 18.3 40 4.4 40 40 S 15 24 30.04 1017 10 16.0934 0 0
1:52 pm 13:52 Mostly Cloudy 70 21.1 40 4.4 34 34 S 17 28 29.98 1015 10 16.0934 0 0
2:52 pm 14:52 Mostly Cloudy 72 22.2 40 4.4 31 31 S 16 26 29.93 1013 10 16.0934 0 0
3:52 pm 15:52 Mostly Cloudy 77 25 37 2.8 24 24 SSW 23 37 29.87 1011 10 16.0934 0 0
4:52 pm 16:52 Mostly Cloudy 78 25.6 39 3.9 25 25 SSW 17 28 29.84 1010 10 16.0934 0 0
5:52 pm 17:52 Mostly Cloudy 77 25 39 3.9 26 26 SSW 20 31 29.82 1010 10 16.0934 0 0
6:52 pm 18:52 Partly Cloudy 75 23.9 40 4.4 28 28 SSW 26 43 29.82 1010 10 16.0934 0 0
7:52 pm 19:52 Cloudy 74 23.3 40 4.4 29 29 SSW 17 28 29.84 1011 10 16.0934 0 0
8:52 pm 20:52 Mostly Cloudy 71 21.7 40 4.4 32 32 SSW 16 26 29.86 1011 10 16.0934 0 0
9:52 pm 21:52 Partly Cloudy 70 21.1 41 5 35 35 SSW 16 26 29.88 1012 10 16.0934 0 0
10:52 pm 22:52 Partly Cloudy 69 20.6 41 5 36 36 SSW 16 26 29.89 1012 10 16.0934 0 0
11:52 pm 23:52 Mostly Cloudy 68 20 41 5 38 38 SSW 14 22 29.89 1012 10 16.0934 0 0

Powered by AerisWeather